N518GP SAEZ-SADF

Flight info

Callsign N518GP
Flight time 0h 11m
Altitude 3000
Route DCT TRINI
Aircraft GLF5/M-SBDE2E3FGHIJ3J4J5M1P2RWXYZ/LB1D1

Departure

Time 2026-04-20 18:20
Airport Ezeiza International Airport - Ministro Pistarini (SAEZ)

Arrival

Time 2026-04-20 18:32
Airport San Fernando Airport (SADF)
Time Latitude Longitude Altitude Speed Heading
2026-04-20 18:02 -34.82740 -58.54688 72 ft 0 kts 141°
2026-04-20 18:16 -34.82743 -58.54686 72 ft 0 kts 141°
2026-04-20 18:17 -34.82753 -58.54675 72 ft 3 kts 141°
2026-04-20 18:17 -34.82769 -58.54641 72 ft 6 kts 96°
2026-04-20 18:17 -34.82743 -58.54590 72 ft 9 kts 46°
2026-04-20 18:17 -34.82691 -58.54525 72 ft 12 kts 45°
2026-04-20 18:18 -34.82624 -58.54442 72 ft 14 kts 46°
2026-04-20 18:18 -34.82557 -58.54358 72 ft 12 kts 45°
2026-04-20 18:18 -34.82499 -58.54286 72 ft 10 kts 46°
2026-04-20 18:18 -34.82449 -58.54225 72 ft 9 kts 45°
2026-04-20 18:19 -34.82401 -58.54166 72 ft 10 kts 46°
2026-04-20 18:19 -34.82350 -58.54103 72 ft 10 kts 46°
2026-04-20 18:19 -34.82298 -58.54038 72 ft 10 kts 46°
2026-04-20 18:19 -34.82238 -58.53979 72 ft 11 kts 33°
2026-04-20 18:20 -34.82171 -58.53888 72 ft 23 kts 89°
2026-04-20 18:20 -34.82270 -58.53289 74 ft 134 kts 103°
2026-04-20 18:20 -34.82503 -58.51944 803 ft 189 kts 104°
2026-04-20 18:20 -34.82763 -58.50378 1513 ft 202 kts 103°
2026-04-20 18:21 -34.83054 -58.48542 2324 ft 235 kts 105°
2026-04-20 18:21 -34.83744 -58.46885 2960 ft 225 kts 135°
2026-04-20 18:21 -34.85096 -58.46110 2966 ft 219 kts 178°
2026-04-20 18:21 -34.86554 -58.46669 2985 ft 225 kts 217°
2026-04-20 18:22 -34.87353 -58.48260 2988 ft 231 kts 257°
2026-04-20 18:22 -34.87116 -58.50191 2983 ft 236 kts 298°
2026-04-20 18:22 -34.85920 -58.51585 2996 ft 239 kts 331°
2026-04-20 18:22 -34.84410 -58.52455 2983 ft 240 kts 336°
2026-04-20 18:23 -34.82913 -58.53349 2967 ft 240 kts 326°
2026-04-20 18:23 -34.81552 -58.54527 2992 ft 240 kts 323°
2026-04-20 18:23 -34.80213 -58.55758 2985 ft 240 kts 322°
2026-04-20 18:23 -34.78901 -58.57005 2987 ft 240 kts 322°
2026-04-20 18:24 -34.77588 -58.58273 2990 ft 241 kts 321°
2026-04-20 18:24 -34.76285 -58.59540 2992 ft 241 kts 321°
2026-04-20 18:24 -34.74974 -58.60818 2995 ft 241 kts 321°
2026-04-20 18:24 -34.73666 -58.62096 2997 ft 241 kts 322°
2026-04-20 18:25 -34.72357 -58.63376 2999 ft 241 kts 322°
2026-04-20 18:25 -34.71060 -58.64643 3000 ft 241 kts 322°
2026-04-20 18:25 -34.69754 -58.65919 2997 ft 242 kts 322°
2026-04-20 18:25 -34.68445 -58.67197 2995 ft 242 kts 322°
2026-04-20 18:26 -34.67137 -58.68474 2993 ft 242 kts 322°
2026-04-20 18:26 -34.65828 -58.69751 2991 ft 242 kts 322°
2026-04-20 18:26 -34.64498 -58.71048 2989 ft 242 kts 322°
2026-04-20 18:26 -34.63183 -58.72331 2987 ft 243 kts 322°
2026-04-20 18:27 -34.61871 -58.73610 2984 ft 243 kts 322°
2026-04-20 18:27 -34.60543 -58.74904 2982 ft 243 kts 322°
2026-04-20 18:27 -34.59345 -58.76071 2980 ft 243 kts 322°
2026-04-20 18:27 -34.57978 -58.77252 2954 ft 243 kts 339°
2026-04-20 18:28 -34.56339 -58.77377 2992 ft 237 kts 20°
2026-04-20 18:28 -34.55050 -58.76276 2968 ft 226 kts 58°
2026-04-20 18:28 -34.54608 -58.74584 2703 ft 201 kts 89°
2026-04-20 18:28 -34.54529 -58.72905 2491 ft 199 kts 86°
2026-04-20 18:29 -34.54237 -58.71246 2270 ft 201 kts 75°
2026-04-20 18:29 -34.53737 -58.69680 2086 ft 192 kts 67°
2026-04-20 18:29 -34.52956 -58.68455 1838 ft 182 kts 54°
2026-04-20 18:29 -34.52148 -58.67281 1603 ft 181 kts 53°
2026-04-20 18:30 -34.51297 -58.66146 1379 ft 182 kts 51°
2026-04-20 18:30 -34.50427 -58.65049 1196 ft 173 kts 50°
2026-04-20 18:30 -34.49648 -58.64073 1089 ft 161 kts 53°
2026-04-20 18:30 -34.48878 -58.63098 859 ft 155 kts 50°
2026-04-20 18:31 -34.48157 -58.62265 653 ft 140 kts 51°
2026-04-20 18:31 -34.47506 -58.61497 466 ft 125 kts 51°
2026-04-20 18:31 -34.46896 -58.60780 315 ft 121 kts 50°
2026-04-20 18:31 -34.46291 -58.60070 149 ft 124 kts 50°
2026-04-20 18:32 -34.45718 -58.59394 17 ft 101 kts 46°
2026-04-20 18:32 -34.45347 -58.58960 17 ft 42 kts 44°
2026-04-20 18:32 -34.45161 -58.58742 17 ft 34 kts 45°
2026-04-20 18:32 -34.45023 -58.58583 17 ft 22 kts 45°
2026-04-20 18:33 -34.44919 -58.58458 17 ft 19 kts 46°
2026-04-20 18:33 -34.44852 -58.58342 17 ft 15 kts 102°
2026-04-20 18:33 -34.44917 -58.58266 17 ft 11 kts 147°
2026-04-20 18:33 -34.44977 -58.58223 17 ft 8 kts 150°
2026-04-20 18:34 -34.45020 -58.58192 17 ft 6 kts 148°
2026-04-20 18:34 -34.45049 -58.58172 17 ft 3 kts 153°
2026-04-20 18:34 -34.45068 -58.58159 17 ft 2 kts 153°
2026-04-20 18:34 -34.45083 -58.58149 17 ft 2 kts 149°
2026-04-20 18:35 -34.45108 -58.58131 17 ft 5 kts 146°
2026-04-20 18:35 -34.45124 -58.58118 17 ft 0 kts 150°
2026-04-20 18:37 -34.45125 -58.58118 17 ft 0 kts 150°
2026-04-20 18:37 -34.45112 -58.58122 17 ft 2 kts 197°
2026-04-20 18:38 -34.45099 -58.58112 17 ft 2 kts 242°
2026-04-20 18:38 -34.45094 -58.58098 17 ft 2 kts 245°
2026-04-20 18:38 -34.45087 -58.58082 17 ft 1 kts 244°
2026-04-20 18:38 -34.45083 -58.58075 17 ft 1 kts 190°
2026-04-20 18:39 -34.45074 -58.58077 17 ft 2 kts 144°
2026-04-20 18:39 -34.45065 -58.58084 17 ft 0 kts 150°